OE-11204 Weather Reports


time (UTC)temp
C
wind
direction
speed
KPH
gust
KPH
rain 1hr
cm
rain 24hr
cm
rain mn
cm
humidity
%
barometer
mb
20260903084128 20 122 3.2 8.0 0.00 0.81 0.00 64 1021.7
20260903083516 19 92 1.6 6.4 0.00 0.81 0.00 67 1021.8
20260903082516 19 77 1.6 6.4 0.00 0.81 0.00 64 1022.0
20260903081129 18 130 3.2 8.0 0.00 0.81 0.00 69 1022.1
20260903080516 18 140 1.6 6.4 0.00 0.81 0.00 73 1022.3
20260903075516 18 180 3.2 6.4 0.00 0.81 0.00 72 1022.4
20260903074129 18 177 1.6 6.4 0.00 0.81 0.00 73 1022.6
20260903073515 17 338 1.6 6.4 0.00 0.81 0.00 80 1022.8
20260903072515 17 333 1.6 6.4 0.00 0.81 0.00 76 1023.0
20260903071129 16 14 1.6 6.4 0.00 0.81 0.00 83 1023.1
20260903070516 16 196 1.6 3.2 0.00 0.81 0.00 84 1023.3
20260903065516 16 259 1.6 6.4 0.00 0.81 0.00 90 1023.4
20260903064128 15 224 3.2 6.4 0.00 0.81 0.00 93 1023.7
20260903063515 14 172 1.6 4.8 0.00 0.81 0.00 94 1023.8
20260903062516 13 150 1.6 4.8 0.00 0.81 0.00 96 1024.0
20260903061129 13 327 1.6 4.8 0.00 0.81 0.00 98 1023.9
20260903060516 13 300 4.8 6.4 0.00 0.81 0.00 98 1024.2
20260903055515 12 282 3.2 8.0 0.00 0.81 0.00 98 1024.2
20260903054128 12 258 3.2 9.7 0.00 0.81 0.00 99 1024.0
20260903053516 12 167 0.0 3.2 0.00 0.81 0.00 99 1024.1
20260903052516 12 116 1.6 3.2 0.00 0.81 0.00 99 1024.1
20260903051129 12 360 0.0 3.2 0.00 0.81 0.00 99 1024.0
20260903050515 12 221 1.6 3.2 0.00 0.81 0.00 99 1023.8
20260903045516 12 73 0.0 3.2 0.00 0.81 0.00 99 1023.8
20260903044128 12 284 1.6 3.2 0.00 0.81 0.00 99 1023.7
20260903043515 13 358 1.6 3.2 0.00 0.81 0.00 100 1023.6
20260903042516 13 243 1.6 3.2 0.00 0.81 0.00 99 1023.6
20260903041128 13 339 1.6 3.2 0.00 0.81 0.00 99 1023.6
20260903040516 13 298 0.0 3.2 0.00 0.81 0.00 99 1023.6
20260903035516 13 5 3.2 4.8 0.00 0.81 0.00 98 1023.7
20260903034515 13 53 1.6 4.8 0.00 0.81 0.00 98 1023.6
20260903033515 13 151 3.2 4.8 0.00 0.81 0.00 99 1023.5
20260903032516 13 164 3.2 6.4 0.00 0.81 0.00 99 1023.6
20260903031129 13 133 3.2 6.4 0.00 0.81 0.00 98 1023.6
20260903030516 13 110 3.2 3.2 0.00 0.81 0.00 97 1023.2
20260903025516 13 23 1.6 3.2 0.00 0.81 0.00 96 1023.3
20260903024516 13 279 0.0 1.6 0.00 0.81 0.00 96 1023.5
20260903023516 13 168 1.6 4.8 0.00 0.81 0.00 96 1023.1
20260903022516 14 145 1.6 4.8 0.00 0.81 0.00 96 1023.0
20260903021128 14 136 1.6 3.2 0.00 0.81 0.00 96 1023.0
20260903020516 14 282 3.2 6.4 0.00 0.81 0.00 96 1023.0
20260903015516 14 283 4.8 8.0 0.00 0.81 0.00 96 1022.9
20260903014128 14 296 3.2 4.8 0.00 0.81 0.00 96 1022.9
20260903013515 14 320 1.6 4.8 0.00 0.81 0.00 96 1022.9
20260903012515 14 290 1.6 3.2 0.00 0.81 0.00 96 1022.9
20260903011129 14 210 1.6 3.2 0.00 0.81 0.00 96 1023.0
20260903010516 14 145 1.6 3.2 0.00 0.81 0.00 96 1023.0
20260903005516 14 195 1.6 4.8 0.00 0.81 0.00 96 1022.8
20260903004129 15 360 0.0 1.6 0.00 0.81 0.00 96 1022.8
20260903003516 15 113 1.6 3.2 0.00 0.81 0.00 96 1022.8
20260903002516 15 360 0.0 3.2 0.00 0.81 0.00 96 1022.8
20260903001528 15 30 1.6 3.2 0.00 0.81 0.00 96 1022.8
20260903000515 15 317 1.6 4.8 0.00 0.81 0.00 96 1022.7
20260902235515 15 267 1.6 3.2 0.00 0.81 0.00 96 1022.8
20260902234128 15 150 3.2 4.8 0.00 0.81 0.00 96 1022.8
20260902233515 15 250 1.6 6.4 0.00 0.81 0.00 96 1022.8
20260902232515 15 307 1.6 3.2 0.00 0.81 0.00 96 1022.7
20260902231516 15 341 3.2 3.2 0.00 0.81 0.00 96 1022.7
20260902230515 15 55 0.0 4.8 0.00 0.81 0.00 96 1022.8
20260902225516 15 149 4.8 6.4 0.00 0.81 0.00 96 1022.7
20260902224129 15 137 4.8 8.0 0.00 0.81 0.00 96 1022.7
20260902223516 15 121 3.2 6.4 0.00 0.81 0.00 96 1022.6
20260902222516 15 3 1.6 3.2 0.00 0.81 0.00 95 1022.5
20260902221129 15 299 4.8 6.4 0.00 0.81 0.00 96 1022.5
20260902220515 15 267 3.2 8.0 0.00 0.81 0.81 96 1022.6
20260902215515 15 239 6.4 11.3 0.00 0.81 0.81 96 1022.5
20260902214129 15 219 1.6 8.0 0.00 0.81 0.81 95 1022.5
20260902213515 15 63 3.2 6.4 0.00 0.81 0.81 95 1022.4
20260902211130 15 160 3.2 4.8 0.00 0.81 0.81 95 1022.3
20260902210516 15 170 3.2 6.4 0.00 0.81 0.81 96 1022.2
20260902205516 15 205 3.2 6.4 0.00 0.81 0.81 94 1022.1
20260902204130 16 239 3.2 6.4 0.00 0.81 0.81 94 1021.9
20260902203515 16 329 1.6 6.4 0.00 0.81 0.81 94 1021.9
20260902202516 16 69 3.2 8.0 0.05 0.81 0.81 93 1021.9
20260902201129 16 94 3.2 9.7 0.36 0.81 0.81 94 1021.9
20260902200516 16 171 3.2 9.7 0.36 0.81 0.81 94 1021.6
20260902195516 16 57 4.8 8.0 0.36 0.84 0.81 92 1021.5
20260902194129 16 111 3.2 6.4 0.36 0.84 0.81 90 1021.2
20260902193516 16 35 3.2 8.0 0.36 0.86 0.81 91 1021.2
20260902192515 16 99 4.8 9.7 0.36 0.99 0.81 92 1020.9
20260902191129 17 179 3.2 11.3 0.30 0.97 0.79 88 1020.8
20260902190515 17 282 6.4 12.9 0.00 0.66 0.48 85 1020.7
20260902185516 17 204 1.6 6.4 0.00 0.66 0.48 88 1020.4
20260902184129 17 93 1.6 8.0 0.00 0.69 0.48 90 1020.3
20260902183516 16 116 1.6 9.7 0.00 0.69 0.48 93 1020.1
20260902182516 17 139 4.8 11.3 0.00 0.69 0.48 92 1019.9
20260902181129 17 137 3.2 6.4 0.00 0.69 0.48 92 1019.7
20260902180516 17 319 3.2 9.7 0.00 0.69 0.48 91 1019.5
20260902175516 17 204 3.2 9.7 0.00 0.69 0.48 92 1019.3
20260902174129 17 167 3.2 6.4 0.00 0.69 0.48 89 1019.0
20260902173515 17 76 3.2 4.8 0.00 0.69 0.48 88 1018.9
20260902172516 17 116 3.2 6.4 0.00 0.69 0.48 86 1018.8
20260902171129 18 124 4.8 11.3 0.03 0.69 0.48 82 1018.6
20260902170516 18 167 3.2 6.4 0.08 0.69 0.48 89 1018.1
20260902165516 20 141 3.2 9.7 0.10 0.69 0.48 83 1017.8
20260902164129 20 335 3.2 8.0 0.15 0.69 0.48 82 1017.5
20260902163516 20 190 3.2 11.3 0.28 0.69 0.48 86 1017.4
20260902162516 20 212 8.0 14.5 0.41 0.69 0.48 84 1017.4
20260902161129 20 39 3.2 9.7 0.43 0.69 0.48 81 1017.4
20260902160515 20 346 3.2 11.3 0.43 0.66 0.43 87 1017.3
20260902155516 20 299 6.4 12.9 0.41 0.61 0.41 86 1017.5
20260902154129 21 275 1.6 8.0 0.36 0.56 0.36 78 1017.2
20260902153516 21 290 6.4 12.9 0.33 0.53 0.33 80 1017.0
20260902152515 22 315 1.6 14.5 0.18 0.38 0.18 78 1016.8
20260902151129 23 128 11.3 19.3 0.08 0.28 0.08 64 1016.2
20260902150516 23 129 11.3 20.9 0.05 0.25 0.05 62 1016.0
20260902145516 23 124 16.1 30.6 0.00 0.23 0.00 58 1015.7
20260902144129 24 118 17.7 29.0 0.00 0.20 0.00 54 1015.8
20260902143516 25 127 16.1 27.4 0.00 0.20 0.00 52 1015.6
20260902142516 26 133 14.5 27.4 0.00 0.20 0.00 52 1015.5
20260902141129 26 124 12.9 30.6 0.00 0.20 0.00 52 1015.5
20260902140516 25 122 14.5 24.1 0.00 0.20 0.00 53 1015.5
20260902135516 25 113 11.3 24.1 0.00 0.20 0.00 52 1015.7
20260902134128 25 121 16.1 29.0 0.00 0.20 0.00 51 1015.8
20260902133516 25 119 16.1 27.4 0.00 0.20 0.00 51 1016.1
20260902132516 25 120 16.1 27.4 0.00 0.20 0.00 53 1016.2
20260902131129 25 123 14.5 29.0 0.00 0.20 0.00 52 1016.5
20260902130516 24 108 8.0 19.3 0.00 0.20 0.00 54 1016.7
20260902125516 24 129 9.7 20.9 0.00 0.20 0.00 55 1017.1
20260902124128 24 113 17.7 32.2 0.00 0.20 0.00 55 1016.9
20260902123516 24 121 14.5 24.1 0.00 0.20 0.00 54 1017.0
20260902122516 24 107 14.5 27.4 0.00 0.20 0.00 52 1017.2
20260902121129 25 114 16.1 27.4 0.00 0.20 0.00 53 1017.3
20260902120515 24 112 14.5 27.4 0.00 0.20 0.00 54 1017.5
20260902115515 24 116 14.5 25.7 0.00 0.20 0.00 54 1017.7
20260902114129 24 115 14.5 24.1 0.00 0.20 0.00 53 1017.8
20260902113516 24 113 14.5 25.7 0.00 0.20 0.00 52 1018.0
20260902112516 24 106 16.1 25.7 0.00 0.20 0.00 54 1018.4
20260902111129 23 109 14.5 25.7 0.00 0.20 0.00 53 1018.5
20260902110516 23 107 16.1 27.4 0.00 0.20 0.00 56 1018.8
20260902105515 23 112 14.5 24.1 0.00 0.20 0.00 54 1019.0
20260902104129 23 113 14.5 24.1 0.00 0.20 0.00 57 1019.3
20260902103516 23 108 12.9 19.3 0.00 0.20 0.00 56 1019.2
20260902102515 22 111 14.5 24.1 0.00 0.20 0.00 58 1019.4
20260902101129 22 107 14.5 22.5 0.00 0.20 0.00 59 1019.8
20260902100516 22 118 6.4 14.5 0.00 0.20 0.00 63 1019.9
20260902095516 22 110 8.0 14.5 0.00 0.20 0.00 62 1020.2
20260902094129 21 119 9.7 17.7 0.00 0.20 0.00 66 1020.5
20260902093516 21 108 8.0 14.5 0.00 0.20 0.00 68 1020.3
20260902092515 21 109 9.7 17.7 0.00 0.20 0.00 67 1020.6
20260902091128 21 113 8.0 14.5 0.00 0.20 0.00 67 1020.7
20260902090516 20 113 8.0 14.5 0.00 0.20 0.00 65 1020.8